Location: *
(2.7500°S, 66.6833°W)
Time: 22:54:31
(UTC+00:00)

Meteor 1-31 Rocket - Pass Details

Date: 24 May 2024
Orbit: 493 x 517 km, 97.7° (Epoch: 13 June)

Event Time Altitude Azimuth Distance (km) Brightness Sun altitude
Rises 22:45:13 0° 168° (SSE) 2,639 6.0 -6.0°
Reaches altitude 10° 22:47:19 10° 167° (SSE) 1,748 5.1 -6.5°
Maximum altitude 22:51:06 83° 79° (E) 523 2.6 -7.4°
Drops below altitude 10° 22:54:49 10° 351° (N) 1,728 5.8 -8.2°
Sets 22:56:54 0° 350° (N) 2,606 6.7 -8.7°
